User: anonymous   Login
Location: Unspecified
(0.0000°N, 0.0000°E)
Time: 00:14:39
(UTC+00:00)
Language:

KUIPER-00046 - Orbit

View from above orbital plane
View from above orbital plane
View from above satellite
View from above satellite

Ground track
Ground track

The orbit is defined by the following mean orbital elements,

1 64506U          26145.06327727 +.00000000 +00000-0 +14522-3 0 00003
2 64506  51.8980 265.3166 0000510  97.7971 262.3050 14.79932722    03
Epoch (UTC): 25 May 2026 01:31:07
Eccentricity: 0.0000510
inclination: 51.8980°
perigee height: 629 km
apogee height: 630 km
right ascension of ascending node: 265.3166°
argument of perigee: 97.7971°
revolutions per day: 14.79932722
mean anomaly at epoch: 262.3050°

The dashed part of the orbit path shows where the satellite is in the earth's shadow,  

DLR